QPF
0.09 0.07 0.05 0.04 0.03 0.03 0.03 0.03 0.03 0.03 0.03 0.02 0.03 0.03 0.02 0.02 0.01 0.01 0.01 0.01 0.00 0.00 0.00 0.00 0.00 0.00 0.00 0.00 0.00 0.00 0.00 0.00 0.00 0.00 0.00 0.00 0.00 0.00
0.06 0.05 0.04 0.03 0.02 0.02 0.03 0.02 0.01 0.01 0.01 0.01 0.01 0.01 0.01 0.01 0.01 0.01 0.00 0.00 0.00 0.00 0.00 0.00 0.00 0.00 0.00 0.00 0.00 0.00 0.00 0.00 0.00 0.00 0.00 0.00 0.00 0.00
0.04 0.03 0.03 0.02 0.02 0.02 0.02 0.01 0.01 0.01 0.01 0.01 0.01 0.01 0.01 0.01 0.00 0.00 0.00 0.00 0.00 0.00 0.00 0.00 0.00 0.00 0.00 0.00 0.00 0.00 0.00 0.00 0.00 0.00 0.00 0.00 0.00 0.00
0.03 0.03 0.03 0.02 0.02 0.01 0.01 0.01 0.00 0.00 0.00 0.00 0.00 0.00 0.00 0.00 0.00 0.00 0.00 0.00 0.00 0.00 0.00 0.00 0.00 0.00 0.00 0.00 0.00 0.00 0.00 0.00 0.00 0.00 0.00 0.00 0.00 0.00
0.05 0.05 0.05 0.04 0.04 0.02 0.01 0.01 0.00 0.00 0.00 0.00 0.00 0.00 0.00 0.00 0.00 0.00 0.00 0.00 0.00 0.00 0.00 0.00 0.00 0.00 0.00 0.00 0.00 0.00 0.00 0.00 0.00 0.00 0.00 0.00 0.00 0.00
0.03 0.03 0.02 0.02 0.02 0.02 0.01 0.01 0.00 0.00 0.01 0.00 0.01 0.00 0.00 0.00 0.00 0.00 0.00 0.00 0.00 0.00 0.00 0.00 0.00 0.00 0.00 0.00 0.00 0.00 0.00 0.00 0.00 0.00 0.00 0.00 0.00 0.00
0.01 0.01 0.01 0.01 0.01 0.01 0.01 0.01 0.01 0.01 0.01 0.01 0.01 0.01 0.00 0.00 0.00 0.00 0.00 0.00 0.00 0.00 0.00 0.00 0.00 0.00 0.00 0.00 0.00 0.00 0.00 0.00 0.00 0.00 0.00 0.00 0.00 0.00
0.01 0.00 0.00 0.00 0.01 0.01 0.01 0.01 0.01 0.00 0.00 0.00 0.00 0.00 0.00 0.00 0.00 0.00 0.00 0.00 0.00 0.00 0.00 0.00 0.00 0.00 0.00 0.00 0.00 0.00 0.00 0.00 0.00 0.00 0.00 0.00 0.00 0.00
0.01 0.01 0.01 0.01 0.01 0.01 0.01 0.01 0.00 0.00 0.00 0.00 0.00 0.00 0.00 0.00 0.00 0.00 0.00 0.00 0.00 0.00 0.00 0.00 0.00 0.00 0.00 0.00 0.00 0.00 0.00 0.00 0.00 0.00 0.00 0.00 0.00 0.00
0.01 0.01 0.01 0.01 0.01 0.01 0.01 0.01 0.01 0.00 0.00 0.00 0.00 0.00 0.00 0.00 0.00 0.00 0.00 0.00 0.00 0.00 0.00 0.00 0.01 0.01 0.01 0.00 0.00 0.00 0.00 0.00 0.00 0.00 0.00 0.00 0.00 0.00
0.00 0.00 0.00 0.00 0.01 0.01 0.01 0.01 0.01 0.01 0.00 0.00 0.00 0.00 0.00 0.00 0.00 0.00 0.00 0.00 0.00 0.00 0.00 0.00 0.01 0.01 0.01 0.00 0.00 0.00 0.00 0.00 0.00 0.00 0.00 0.00 0.00 0.00
0.00 0.00 0.00 0.00 0.00 0.00 0.00 0.00 0.00 0.00 0.00 0.00 0.00 0.00 0.00 0.00 0.00 0.00 0.00 0.00 0.00 0.00 0.00 0.00 0.00 0.01 0.01 0.00 0.00 0.00 0.00 0.00 0.00 0.00 0.00 0.00 0.00 0.00
0.00 0.00 0.00 0.00 0.00 0.00 0.00 0.00 0.00 0.00 0.00 0.00 0.00 0.00 0.00 0.00 0.00 0.00 0.00 0.00 0.00 0.01 0.01 0.01 0.01 0.01 0.00 0.00 0.00 0.00 0.00 0.00 0.00 0.00 0.00 0.00 0.00 0.00
0.00 0.00 0.00 0.00 0.00 0.00 0.00 0.00 0.00 0.00 0.00 0.00 0.00 0.00 0.00 0.00 0.00 0.00 0.01 0.01 0.01 0.01 0.01 0.02 0.01 0.00 0.00 0.00 0.00 0.00 0.00 0.00 0.00 0.00 0.00 0.00 0.00 0.00
0.00 0.00 0.00 0.00 0.00 0.00 0.00 0.00 0.00 0.00 0.00 0.00 0.00 0.00 0.00 0.00 0.00 0.00 0.00 0.00 0.00 0.01 0.01 0.01 0.01 0.01 0.00 0.00 0.00 0.00 0.00 0.00 0.00 0.00 0.00 0.00 0.00 0.00
0.00 0.00 0.00 0.00 0.00 0.00 0.00 0.00 0.00 0.00 0.00 0.00 0.00 0.00 0.00 0.00 0.01 0.00 0.00 0.00 0.00 0.00 0.00 0.00 0.00 0.01 0.01 0.00 0.00 0.00 0.00 0.00 0.00 0.00 0.00 0.00 0.00 0.00
0.00 0.00 0.00 0.00 0.00 0.00 0.00 0.00 0.00 0.00 0.00 0.00 0.00 0.00 0.00 0.00 0.00 0.00 0.00 0.00 0.00 0.00 0.00 0.00 0.00 0.00 0.00 0.00 0.00 0.00 0.00 0.00 0.00 0.00 0.00 0.00 0.00 0.00
0.00 0.00 0.00 0.00 0.00 0.00 0.00 0.00 0.00 0.00 0.00 0.00 0.00 0.00 0.00 0.00 0.00 0.00 0.00 0.00 0.00 0.00 0.00 0.00 0.00 0.00 0.00 0.00 0.00 0.00 0.00 0.00 0.00 0.00 0.00 0.00 0.00 0.00
0.00 0.00 0.00 0.00 0.00 0.00 0.00 0.00 0.00 0.00 0.00 0.00 0.00 0.00 0.00 0.00 0.00 0.00 0.00 0.00 0.00 0.00 0.00 0.00 0.00 0.00 0.00 0.00 0.00 0.00 0.00 0.00 0.00 0.00 0.00 0.00 0.00 0.00
0.00 0.00 0.00 0.00 0.00 0.00 0.00 0.00 0.00 0.00 0.00 0.00 0.00 0.00 0.00 0.00 0.00 0.00 0.00 0.00 0.00 0.00 0.00 0.00 0.00 0.00 0.00 0.00 0.00 0.00 0.00 0.00 0.00 0.00 0.00 0.00 0.00 0.00
0.00 0.00 0.00 0.00 0.00 0.00 0.00 0.00 0.00 0.00 0.00 0.00 0.00 0.00 0.00 0.00 0.00 0.00 0.00 0.00 0.00 0.00 0.00 0.00 0.00 0.00 0.00 0.00 0.00 0.00 0.00 0.00 0.00 0.00 0.00 0.00 0.00 0.00
0.00 0.00 0.00 0.00 0.00 0.00 0.00 0.00 0.00 0.00 0.00 0.00 0.00 0.00 0.00 0.00 0.00 0.00 0.00 0.00 0.00 0.00 0.00 0.00 0.00 0.00 0.00 0.00 0.00 0.00 0.00 0.00 0.00 0.00 0.00 0.00 0.00 0.00
0.00 0.00 0.00 0.00 0.00 0.00 0.00 0.00 0.00 0.00 0.00 0.00 0.00 0.00 0.00 0.00 0.00 0.00 0.00 0.00 0.00 0.00 0.00 0.00 0.00 0.00 0.00 0.00 0.00 0.00 0.00 0.00 0.00 0.00 0.00 0.00 0.00 0.00
MSLP
1018.37 1018.60 1018.88 1019.19 1019.56 1019.98 1020.46 1020.99 1021.55 1022.12 1022.68 1023.19 1023.62 1023.95 1024.16 1024.28 1024.31 1024.30 1024.27 1024.27 1024.31 1024.40 1024.55 1024.72 1024.88 1025.02 1025.10 1025.10 1025.02 1024.88 1024.69 1024.47 1024.25 1024.03 1023.82 1023.61 1023.39 1023.14
1019.00 1019.14 1019.29 1019.48 1019.72 1020.02 1020.40 1020.85 1021.36 1021.92 1022.48 1023.01 1023.46 1023.82 1024.06 1024.20 1024.24 1024.23 1024.20 1024.19 1024.22 1024.31 1024.45 1024.63 1024.80 1024.95 1025.04 1025.06 1025.01 1024.88 1024.71 1024.51 1024.30 1024.09 1023.89 1023.69 1023.48 1023.24
1019.71 1019.79 1019.86 1019.96 1020.10 1020.30 1020.59 1020.96 1021.42 1021.93 1022.47 1022.98 1023.44 1023.81 1024.06 1024.21 1024.26 1024.24 1024.20 1024.17 1024.18 1024.24 1024.34 1024.48 1024.63 1024.76 1024.84 1024.85 1024.81 1024.70 1024.55 1024.38 1024.20 1024.04 1023.87 1023.70 1023.52 1023.30
1020.44 1020.50 1020.54 1020.58 1020.66 1020.79 1021.01 1021.32 1021.71 1022.16 1022.66 1023.15 1023.59 1023.94 1024.19 1024.34 1024.39 1024.36 1024.30 1024.24 1024.20 1024.21 1024.25 1024.33 1024.41 1024.49 1024.53 1024.52 1024.46 1024.37 1024.25 1024.11 1023.99 1023.87 1023.76 1023.64 1023.49 1023.30
1021.14 1021.21 1021.26 1021.29 1021.35 1021.44 1021.61 1021.86 1022.19 1022.59 1023.03 1023.47 1023.87 1024.20 1024.44 1024.57 1024.61 1024.57 1024.49 1024.39 1024.31 1024.24 1024.21 1024.20 1024.20 1024.19 1024.17 1024.12 1024.04 1023.95 1023.85 1023.75 1023.67 1023.61 1023.56 1023.50 1023.40 1023.25
1021.78 1021.89 1021.96 1022.02 1022.08 1022.17 1022.31 1022.52 1022.79 1023.13 1023.50 1023.88 1024.23 1024.52 1024.73 1024.85 1024.87 1024.83 1024.73 1024.60 1024.46 1024.33 1024.22 1024.12 1024.03 1023.93 1023.83 1023.72 1023.60 1023.49 1023.40 1023.34 1023.30 1023.29 1023.29 1023.28 1023.22 1023.11
1022.34 1022.49 1022.60 1022.69 1022.78 1022.88 1023.01 1023.19 1023.41 1023.68 1023.99 1024.29 1024.58 1024.82 1024.99 1025.09 1025.11 1025.06 1024.95 1024.80 1024.63 1024.45 1024.27 1024.08 1023.90 1023.72 1023.53 1023.35 1023.19 1023.06 1022.96 1022.91 1022.90 1022.92 1022.96 1022.98 1022.97 1022.89
1022.82 1023.00 1023.15 1023.29 1023.40 1023.52 1023.64 1023.79 1023.97 1024.17 1024.40 1024.63 1024.84 1025.03 1025.16 1025.23 1025.25 1025.19 1025.09 1024.94 1024.76 1024.55 1024.32 1024.07 1023.82 1023.56 1023.30 1023.06 1022.85 1022.68 1022.56 1022.50 1022.49 1022.53 1022.58 1022.63 1022.64 1022.58
1023.23 1023.43 1023.61 1023.77 1023.91 1024.04 1024.15 1024.27 1024.40 1024.53 1024.68 1024.83 1024.98 1025.10 1025.19 1025.24 1025.25 1025.20 1025.11 1024.98 1024.80 1024.58 1024.33 1024.06 1023.76 1023.44 1023.13 1022.84 1022.58 1022.37 1022.22 1022.13 1022.11 1022.13 1022.18 1022.23 1022.24 1022.21
1023.59 1023.79 1023.98 1024.15 1024.30 1024.43 1024.53 1024.61 1024.68 1024.76 1024.83 1024.90 1024.97 1025.04 1025.08 1025.11 1025.11 1025.07 1025.00 1024.89 1024.73 1024.53 1024.28 1024.00 1023.68 1023.35 1023.00 1022.68 1022.38 1022.13 1021.94 1021.82 1021.76 1021.76 1021.78 1021.81 1021.83 1021.79
1023.92 1024.11 1024.29 1024.46 1024.60 1024.71 1024.79 1024.83 1024.86 1024.87 1024.87 1024.87 1024.88 1024.88 1024.89 1024.89 1024.87 1024.84 1024.78 1024.69 1024.56 1024.38 1024.16 1023.89 1023.58 1023.24 1022.89 1022.55 1022.23 1021.96 1021.74 1021.58 1021.48 1021.43 1021.42 1021.42 1021.42 1021.38
1024.24 1024.40 1024.56 1024.71 1024.83 1024.92 1024.97 1024.98 1024.95 1024.91 1024.86 1024.80 1024.75 1024.70 1024.67 1024.63 1024.60 1024.56 1024.51 1024.43 1024.31 1024.16 1023.96 1023.72 1023.43 1023.11 1022.78 1022.44 1022.12 1021.83 1021.58 1021.39 1021.25 1021.16 1021.11 1021.08 1021.05 1021.01
1024.56 1024.69 1024.82 1024.93 1025.03 1025.08 1025.10 1025.07 1025.02 1024.94 1024.84 1024.74 1024.65 1024.56 1024.49 1024.42 1024.36 1024.30 1024.23 1024.15 1024.04 1023.90 1023.72 1023.49 1023.24 1022.95 1022.64 1022.32 1022.01 1021.72 1021.46 1021.25 1021.08 1020.95 1020.86 1020.79 1020.75 1020.70
1024.87 1024.96 1025.05 1025.14 1025.19 1025.22 1025.21 1025.16 1025.08 1024.98 1024.86 1024.74 1024.62 1024.50 1024.39 1024.29 1024.19 1024.10 1024.00 1023.89 1023.77 1023.62 1023.44 1023.23 1023.00 1022.74 1022.46 1022.18 1021.89 1021.61 1021.35 1021.13 1020.94 1020.78 1020.65 1020.56 1020.49 1020.44
1025.15 1025.21 1025.27 1025.31 1025.33 1025.33 1025.30 1025.23 1025.15 1025.04 1024.92 1024.80 1024.67 1024.53 1024.40 1024.26 1024.12 1023.98 1023.84 1023.69 1023.52 1023.35 1023.16 1022.95 1022.73 1022.49 1022.24 1021.99 1021.73 1021.47 1021.23 1021.00 1020.79 1020.62 1020.47 1020.35 1020.26 1020.20
1025.39 1025.42 1025.44 1025.44 1025.44 1025.41 1025.36 1025.30 1025.22 1025.13 1025.02 1024.90 1024.77 1024.64 1024.48 1024.31 1024.13 1023.94 1023.74 1023.53 1023.32 1023.10 1022.88 1022.65 1022.43 1022.20 1021.98 1021.75 1021.51 1021.28 1021.05 1020.83 1020.62 1020.43 1020.26 1020.12 1020.01 1019.93
1025.57 1025.57 1025.55 1025.53 1025.50 1025.45 1025.40 1025.34 1025.28 1025.20 1025.12 1025.03 1024.92 1024.78 1024.61 1024.42 1024.20 1023.96 1023.69 1023.42 1023.14 1022.87 1022.60 1022.35 1022.11 1021.89 1021.67 1021.45 1021.24 1021.03 1020.81 1020.59 1020.38 1020.18 1019.99 1019.83 1019.69 1019.59
1025.68 1025.65 1025.61 1025.57 1025.51 1025.46 1025.40 1025.36 1025.31 1025.27 1025.22 1025.15 1025.05 1024.92 1024.75 1024.54 1024.28 1023.99 1023.67 1023.33 1022.99 1022.67 1022.35 1022.06 1021.80 1021.56 1021.34 1021.13 1020.92 1020.72 1020.51 1020.29 1020.07 1019.86 1019.65 1019.47 1019.30 1019.16
1025.73 1025.68 1025.62 1025.56 1025.49 1025.44 1025.39 1025.35 1025.33 1025.31 1025.28 1025.24 1025.16 1025.04 1024.86 1024.63 1024.35 1024.02 1023.65 1023.26 1022.87 1022.49 1022.13 1021.80 1021.51 1021.24 1021.01 1020.79 1020.59 1020.38 1020.17 1019.95 1019.72 1019.49 1019.27 1019.05 1018.85 1018.68
1025.73 1025.67 1025.60 1025.52 1025.46 1025.40 1025.36 1025.34 1025.34 1025.34 1025.33 1025.30 1025.23 1025.12 1024.94 1024.69 1024.38 1024.02 1023.62 1023.19 1022.76 1022.33 1021.94 1021.58 1021.26 1020.97 1020.72 1020.49 1020.28 1020.06 1019.84 1019.62 1019.38 1019.13 1018.88 1018.64 1018.40 1018.19
1025.68 1025.62 1025.55 1025.48 1025.41 1025.37 1025.34 1025.34 1025.34 1025.36 1025.36 1025.34 1025.27 1025.15 1024.96 1024.70 1024.38 1023.99 1023.57 1023.11 1022.66 1022.21 1021.79 1021.41 1021.07 1020.77 1020.50 1020.26 1020.03 1019.81 1019.58 1019.35 1019.10 1018.83 1018.56 1018.29 1018.03 1017.77
1025.59 1025.54 1025.48 1025.42 1025.37 1025.34 1025.33 1025.34 1025.35 1025.37 1025.38 1025.35 1025.28 1025.15 1024.95 1024.67 1024.33 1023.94 1023.50 1023.04 1022.57 1022.12 1021.69 1021.30 1020.96 1020.64 1020.37 1020.12 1019.88 1019.66 1019.43 1019.18 1018.93 1018.66 1018.38 1018.09 1017.80 1017.51
1025.47 1025.42 1025.38 1025.34 1025.31 1025.31 1025.31 1025.33 1025.36 1025.38 1025.38 1025.34 1025.25 1025.10 1024.89 1024.60 1024.25 1023.85 1023.41 1022.96 1022.50 1022.05 1021.63 1021.25 1020.90 1020.60 1020.32 1020.08 1019.84 1019.62 1019.39 1019.15 1018.91 1018.64 1018.36 1018.07 1017.76 1017.45
Thickness
5628 5627 5627 5626 5627 5627 5625 5621 5614 5603 5596 5594 5592 5590 5588 5586 5583 5579 5576 5574 5571 5567 5564 5560 5556 5552 5548 5544 5541 5537 5533 5530 5526 5524 5521 5519 5517 5515
5615 5615 5614 5613 5614 5614 5613 5610 5607 5601 5591 5586 5584 5582 5579 5576 5573 5569 5566 5564 5561 5558 5554 5550 5546 5542 5537 5533 5530 5526 5522 5519 5516 5513 5510 5508 5506 5504
5602 5602 5601 5601 5601 5601 5600 5598 5595 5592 5584 5577 5575 5572 5569 5566 5563 5560 5557 5555 5552 5549 5546 5541 5537 5533 5528 5524 5520 5517 5513 5510 5506 5503 5500 5498 5495 5493
5589 5589 5588 5589 5588 5587 5586 5584 5582 5579 5575 5567 5563 5560 5558 5555 5553 5550 5548 5546 5544 5541 5537 5533 5529 5525 5521 5517 5513 5509 5506 5502 5499 5495 5492 5490 5487 5484
5576 5576 5575 5576 5574 5573 5572 5570 5568 5567 5563 5557 5551 5548 5546 5544 5542 5540 5538 5536 5535 5532 5529 5525 5522 5518 5514 5511 5507 5503 5500 5496 5493 5489 5485 5482 5479 5476
5564 5564 5563 5563 5561 5561 5559 5556 5555 5553 5549 5545 5540 5537 5534 5533 5530 5527 5525 5525 5525 5523 5521 5518 5515 5512 5509 5505 5502 5499 5495 5491 5488 5484 5480 5477 5473 5470
5552 5552 5552 5552 5551 5550 5548 5545 5543 5540 5536 5532 5528 5525 5522 5521 5519 5517 5515 5514 5515 5514 5512 5511 5509 5506 5504 5501 5498 5495 5491 5487 5484 5480 5476 5472 5469 5466
5540 5540 5540 5540 5539 5538 5537 5536 5533 5530 5525 5521 5517 5515 5513 5512 5510 5509 5506 5504 5503 5505 5503 5502 5502 5500 5499 5497 5495 5492 5488 5485 5481 5477 5473 5470 5466 5463
5530 5529 5529 5528 5527 5527 5526 5525 5523 5521 5519 5514 5510 5508 5506 5505 5504 5502 5499 5497 5496 5498 5496 5495 5495 5494 5495 5494 5492 5489 5486 5483 5479 5475 5472 5468 5464 5461
5519 5518 5516 5516 5516 5516 5515 5514 5512 5511 5509 5507 5505 5503 5502 5501 5498 5496 5494 5492 5492 5492 5491 5488 5489 5489 5491 5491 5490 5487 5484 5481 5478 5474 5471 5467 5464 5460
5509 5508 5507 5506 5506 5506 5505 5502 5501 5500 5501 5500 5500 5499 5498 5496 5494 5490 5488 5485 5483 5485 5486 5484 5484 5484 5486 5487 5487 5485 5483 5480 5477 5474 5471 5467 5464 5460
5498 5498 5498 5497 5497 5497 5495 5493 5491 5491 5492 5493 5494 5494 5493 5492 5490 5487 5484 5480 5478 5478 5482 5481 5481 5480 5479 5483 5484 5484 5482 5480 5478 5475 5472 5468 5464 5460
5490 5489 5490 5490 5490 5490 5488 5486 5485 5485 5484 5485 5486 5486 5486 5486 5485 5484 5482 5479 5476 5476 5481 5480 5478 5477 5475 5476 5479 5482 5481 5479 5477 5475 5473 5470 5466 5461
5483 5483 5483 5484 5484 5484 5483 5482 5482 5481 5479 5479 5478 5478 5478 5479 5480 5481 5480 5479 5479 5480 5481 5480 5478 5477 5474 5473 5474 5478 5480 5479 5477 5475 5473 5470 5467 5463
5479 5479 5480 5480 5480 5479 5479 5478 5477 5475 5473 5472 5471 5472 5473 5475 5476 5478 5479 5479 5480 5481 5482 5481 5480 5479 5476 5474 5474 5475 5475 5477 5477 5475 5473 5470 5467 5464
5475 5476 5477 5477 5476 5475 5475 5473 5472 5471 5469 5467 5467 5469 5470 5472 5472 5473 5474 5474 5475 5478 5482 5482 5482 5481 5479 5478 5476 5475 5475 5475 5476 5475 5473 5471 5468 5465
5471 5471 5471 5470 5469 5469 5468 5468 5467 5467 5465 5465 5465 5465 5466 5468 5469 5470 5470 5471 5471 5473 5476 5481 5483 5483 5482 5480 5478 5478 5477 5476 5477 5475 5472 5470 5469 5467
5468 5466 5465 5464 5464 5463 5463 5463 5463 5462 5462 5462 5462 5462 5463 5464 5465 5468 5469 5469 5470 5472 5474 5477 5479 5480 5481 5483 5483 5481 5480 5479 5478 5476 5473 5469 5468 5470
5467 5465 5463 5463 5462 5462 5461 5460 5460 5460 5460 5460 5460 5461 5462 5463 5464 5466 5467 5468 5470 5472 5475 5477 5478 5477 5475 5476 5483 5486 5482 5482 5479 5477 5475 5471 5469 5470
5466 5465 5464 5463 5462 5461 5459 5459 5458 5458 5458 5458 5458 5459 5460 5462 5463 5465 5466 5468 5470 5473 5476 5479 5480 5479 5477 5478 5481 5486 5489 5484 5481 5479 5477 5475 5472 5472
5467 5466 5465 5463 5462 5460 5459 5458 5457 5456 5457 5457 5457 5459 5460 5461 5463 5465 5467 5470 5472 5474 5476 5479 5483 5485 5484 5483 5482 5485 5489 5490 5487 5483 5480 5475 5472 5469
5468 5467 5466 5465 5463 5461 5459 5458 5457 5456 5456 5456 5457 5459 5460 5462 5463 5466 5468 5470 5473 5475 5478 5481 5486 5487 5486 5484 5483 5483 5485 5489 5490 5487 5484 5480 5473 5469
5471 5469 5467 5466 5464 5462 5460 5459 5458 5456 5456 5457 5458 5459 5461 5463 5465 5467 5470 5472 5475 5477 5480 5482 5484 5485 5485 5484 5483 5483 5485 5485 5484 5483 5484 5483 5480 5477